Location: Unspecified
(0.0000°N, 0.0000°E)
Time: 13:36:19
(UTC+00:00)

FORMOSAT 3A - Pass Details

Date: 20 May 2026
Orbit: 751 x 823 km, 72.0° (Epoch: 5 June)

Event Time Altitude Azimuth Distance (km) Brightness Sun altitude
Rises 19:21:46 0° 19° (NNE) 3,315 10.3 -19.9°
Reaches altitude 10° 19:25:19 10° 42° (NE) 2,375 9.3 -20.8°
Enters shadow 19:25:44 11° 46° (NE) 2,297 9.2 -20.9°
